Fairbanks, AK

10:16 AM AKST on December 05, 2016 (GMT -0900)
Fairbanks International

Weather History for PAFA - October, 2012

Change the Weather History Date:

Wednesday, October 17, 2012

  Actual Average Record
Temperature  
Mean Temperature 18 °F 24 °F  
Max Temperature 22 °F 31 °F 54 °F (1925)
Min Temperature 14 °F 16 °F -10 °F (1907)
Degree Days  
Heating Degree Days 47 41  
Month to date heating degree days 563 592  
Since 1 July heating degree days 1537 1586  
Cooling Degree Days 0 0  
Month to date cooling degree days 0 0  
Year to date cooling degree days 34 61  
Moisture  
Dew Point 14 °F    
Average Humidity 82    
Maximum Humidity 93    
Minimum Humidity 65    
Precipitation  
Precipitation 0.02 in 0.03 in 0.32 in (1933)
Month to date precipitation 1.18 0.48  
Year to date precipitation 8.94 9.15  
Snow  
Snow 0.20 in 0.40 in 9.70 in (1974)
Month to date snowfall 3.8 5.0  
Since 1 July snowfall 3.8 6.8  
Since 1 September snowfall 3.8 6.8  
Snow Depth 3.00 in    
Sea Level Pressure  
Sea Level Pressure 29.87 in    
Wind  
Wind Speed 2 mph (South)    
Max Wind Speed 6 mph    
Max Gust Speed -    
Visibility 8 miles    
Events Snow    
T = Trace of Precipitation, MM = Missing Value Source: NWS Daily Summary

Daily Weather History Graph

Daily Weather History Graph

Search for Another Location

Airport or City:

Trip Planner

Search our weather history database for the weather conditions in past years. The results will help you decide how hot, cold, wet, or windy it might be!

Date:

Astronomy

Oct. 17, 2012 Rise Set
Actual Time 8:52 AM AKDT 6:19 PM AKDT
Civil Twilight 8:01 AM AKDT 7:10 PM AKDT
Nautical Twilight 7:05 AM AKDT 8:06 PM AKDT
Astronomical Twilight 6:07 AM AKDT 9:03 PM AKDT
Moon 1:04 PM AKDT (10/17) 6:35 PM AKDT (10/17)
Length of Visible Light 11h 08m
Length of Day
9h 27m
Waxing Crescent, 8% of the Moon is Illuminated
Oct 17
Waxing Crescent
Oct 21
First Quarter
Oct 29
Full
Nov 6
Last Quarter
Nov 13
New

Hourly Weather History & Observations

Time (AKDT) Temp. Windchill Dew Point Humidity Pressure Visibility Wind Dir Wind Speed Gust Speed Precip Events Conditions
12:53 AM 19.9 °F 14.9 °F 17.1 °F 89% 29.74 in 2.0 mi SSW 3.5 mph - 0.01 in Snow Light Snow
1:19 AM 19.4 °F 11.5 °F 17.6 °F 93% 29.71 in 3.0 mi South 5.8 mph - 0.01 in Snow Light Snow
1:53 AM 19.0 °F - 16.0 °F 88% 29.75 in 2.0 mi Calm Calm - 0.01 in Snow Light Snow
2:53 AM 18.0 °F 11.1 °F 15.1 °F 88% 29.78 in 2.0 mi SSE 4.6 mph - 0.00 in Snow Light Snow
3:09 AM 17.6 °F - 15.8 °F 93% 29.75 in 6.0 mi Calm Calm - 0.00 in Snow Light Snow
3:53 AM 16.0 °F 8.8 °F 14.0 °F 92% 29.80 in 4.0 mi ESE 4.6 mph - 0.00 in Snow Light Snow
4:27 AM 15.8 °F 10.2 °F 12.2 °F 86% 29.78 in 2.0 mi ESE 3.5 mph - 0.01 in Snow Light Snow
4:53 AM 16.0 °F - 12.9 °F 88% 29.83 in 3.0 mi Calm Calm - 0.01 in Snow Light Snow
5:53 AM 15.1 °F - 12.0 °F 88% 29.84 in 10.0 mi Calm Calm - 0.00 in Snow Light Snow
6:53 AM 14.0 °F - 10.9 °F 88% 29.86 in 10.0 mi Calm Calm - 0.00 in Snow Light Snow
7:53 AM 16.0 °F - 12.0 °F 84% 29.87 in 10.0 mi Calm Calm - 0.00 in   Overcast
8:53 AM 17.1 °F - 12.9 °F 84% 29.89 in 10.0 mi Calm Calm - 0.00 in Snow Light Snow
9:53 AM 18.0 °F - 12.9 °F 81% 29.90 in 10.0 mi Calm Calm - 0.00 in Snow Light Snow
10:53 AM 19.0 °F - 14.0 °F 81% 29.92 in 10.0 mi Calm Calm - 0.00 in Snow Light Snow
11:53 AM 19.9 °F - 15.1 °F 81% 29.92 in 7.0 mi Calm Calm - 0.00 in Snow Light Snow
12:53 PM 21.0 °F - 15.1 °F 78% 29.93 in 10.0 mi Calm Calm - 0.00 in Snow Light Snow
1:53 PM 21.9 °F - 15.1 °F 75% 29.93 in 10.0 mi Calm Calm - 0.00 in Snow Light Snow
2:53 PM 21.9 °F - 15.1 °F 75% 29.92 in 10.0 mi Calm Calm - 0.00 in   Overcast
3:53 PM 21.9 °F - 15.1 °F 75% 29.92 in 10.0 mi Calm Calm - N/A   Overcast
4:53 PM 21.9 °F - 14.0 °F 72% 29.92 in 10.0 mi Calm Calm - N/A   Overcast
5:53 PM 21.0 °F - 14.0 °F 74% 29.92 in 10.0 mi Calm Calm - N/A   Overcast
6:53 PM 21.0 °F - 15.1 °F 78% 29.92 in 10.0 mi Calm Calm - N/A   Overcast
7:53 PM 19.9 °F - 16.0 °F 85% 29.92 in 10.0 mi Calm Calm - N/A   Overcast
8:53 PM 19.9 °F - 16.0 °F 85% 29.93 in 10.0 mi Calm Calm - N/A   Overcast
9:53 PM 19.9 °F 14.9 °F 15.1 °F 81% 29.93 in 10.0 mi SW 3.5 mph - N/A   Overcast
10:53 PM 19.9 °F - 15.1 °F 81% 29.93 in 10.0 mi Calm Calm - N/A   Overcast
11:53 PM 19.9 °F 13.4 °F 16.0 °F 85% 29.93 in 10.0 mi WSW 4.6 mph - N/A   Overcast